Weather History for KCMH - October, 2011

Change the Weather History Date:

Friday, October 28, 2011

  Actual Average Record
Temperature  
Mean Temperature 41 °F 51 °F  
Max Temperature 48 °F 61 °F 81 °F (1927)
Min Temperature 33 °F 41 °F 21 °F (1976)
Degree Days  
Heating Degree Days 24 14  
Month to date heating degree days 255 281  
Since 1 July heating degree days 326 350  
Cooling Degree Days 0 0  
Month to date cooling degree days 9 13  
Year to date cooling degree days 1262 1024  
Moisture  
Dew Point 35 °F    
Average Humidity 80    
Maximum Humidity 100    
Minimum Humidity 60    
Precipitation  
Precipitation 0.00 in 0.09 in 1.10 in (1883)
Month to date precipitation 3.61 2.34  
Year to date precipitation 44.68 32.87  
Snow  
Snow 0.00 in 0.10 in 0.50 in (1925)
Month to date snowfall 0.0 0.2  
Since 1 July snowfall 0.0 0.2  
Since 1 September snowfall 0.0 0.2  
Snow Depth 0.00 in    
Sea Level Pressure  
Sea Level Pressure 30.17 in    
Wind  
Wind Speed 2 mph (East)    
Max Wind Speed 10 mph    
Max Gust Speed 16 mph    
Visibility 9 miles    
Events      
T = Trace of Precipitation, MM = Missing Value Source: NWS Daily Summary

Daily Weather History Graph

Daily Weather History Graph

Search for Another Location

Airport or City:

Trip Planner

Search our weather history database for the weather conditions in past years. The results will help you decide how hot, cold, wet, or windy it might be!

Date:

Astronomy

Oct. 28, 2011 Rise Set
Actual Time 7:55 AM EDT 6:34 PM EDT
Civil Twilight 7:27 AM EDT 7:02 PM EDT
Nautical Twilight 6:56 AM EDT 7:33 PM EDT
Astronomical Twilight 6:24 AM EDT 8:05 PM EDT
Moon 10:09 AM EDT (10/28) 7:56 PM EDT (10/28)
Length of Visible Light 11h 34m
Length of Day
10h 38m
Waxing Crescent, 5% of the Moon is Illuminated
Oct 28
Waxing Crescent
Nov 2
First Quarter
Nov 10
Full
Nov 18
Last Quarter
Nov 25
New

Hourly Weather History & Observations

Time (EDT) Temp. Windchill Dew Point Humidity Pressure Visibility Wind Dir Wind Speed Gust Speed Precip Events Conditions
12:51 AM 37.9 °F 35.5 °F 36.0 °F 93% 30.15 in 10.0 mi NNE 3.5 mph - N/A   Scattered Clouds
1:51 AM 36.0 °F - 35.1 °F 97% 30.16 in 10.0 mi Calm Calm - N/A   Partly Cloudy
2:51 AM 36.0 °F - 35.1 °F 97% 30.17 in 9.0 mi Calm Calm - N/A   Clear
3:51 AM 35.1 °F - 33.1 °F 92% 30.17 in 9.0 mi Calm Calm - N/A   Partly Cloudy
4:44 AM 35.6 °F - 33.8 °F 93% 30.16 in 6.0 mi Calm Calm - N/A   Scattered Clouds
4:51 AM 34.0 °F - 33.1 °F 96% 30.18 in 6.0 mi Calm Calm - N/A   Scattered Clouds
5:08 AM 33.8 °F - 32.0 °F 93% 30.15 in 0.8 mi Calm Calm - N/A   Mostly Cloudy
5:28 AM 33.8 °F - 32.0 °F 93% 30.16 in 3.0 mi Calm Calm - N/A   Mostly Cloudy
5:38 AM 33.8 °F - 33.8 °F 100% 30.16 in 8.0 mi Calm Calm - N/A   Partly Cloudy
5:51 AM 34.0 °F - 33.1 °F 96% 30.18 in 8.0 mi Calm Calm - N/A   Mostly Cloudy
6:51 AM 34.0 °F - 33.1 °F 96% 30.19 in 10.0 mi Calm Calm - N/A   Mostly Cloudy
7:51 AM 36.0 °F - 34.0 °F 93% 30.20 in 9.0 mi Calm Calm - N/A   Mostly Cloudy
8:51 AM 36.0 °F - 34.0 °F 93% 30.22 in 7.0 mi Calm Calm - N/A   Overcast
9:51 AM 39.0 °F - 36.0 °F 89% 30.24 in 8.0 mi Calm Calm - N/A   Overcast
10:51 AM 42.1 °F - 37.9 °F 85% 30.24 in 8.0 mi Calm Calm - N/A   Overcast
11:51 AM 44.1 °F - 39.0 °F 82% 30.22 in 10.0 mi Calm Calm - N/A   Overcast
12:51 PM 45.0 °F 42.6 °F 37.9 °F 76% 30.20 in 10.0 mi ENE 4.6 mph - N/A   Overcast
1:51 PM 46.0 °F 42.5 °F 37.0 °F 71% 30.17 in 10.0 mi ENE 6.9 mph - N/A   Overcast
2:51 PM 46.0 °F 42.5 °F 37.0 °F 71% 30.14 in 10.0 mi ENE 6.9 mph - N/A   Mostly Cloudy
3:51 PM 46.0 °F 41.9 °F 35.1 °F 66% 30.14 in 9.0 mi East 8.1 mph - N/A   Overcast
4:51 PM 46.0 °F 42.5 °F 33.1 °F 61% 30.15 in 10.0 mi East 6.9 mph - N/A   Overcast
5:51 PM 45.0 °F 41.8 °F 33.1 °F 63% 30.14 in 10.0 mi East 5.8 mph - N/A   Mostly Cloudy
6:51 PM 42.1 °F 38.4 °F 33.1 °F 70% 30.15 in 10.0 mi SE 5.8 mph - N/A   Scattered Clouds
7:51 PM 42.1 °F - 35.1 °F 76% 30.16 in 10.0 mi Calm Calm - N/A   Mostly Cloudy
8:51 PM 41.0 °F - 35.1 °F 79% 30.16 in 10.0 mi Calm Calm - N/A   Overcast
9:51 PM 37.0 °F 34.5 °F 35.1 °F 93% 30.14 in 10.0 mi East 3.5 mph - N/A   Overcast
10:51 PM 37.9 °F - 35.1 °F 89% 30.13 in 10.0 mi Calm Calm - N/A   Overcast
11:51 PM 37.0 °F 34.5 °F 34.0 °F 89% 30.12 in 9.0 mi East 3.5 mph - N/A   Mostly Cloudy